Location: Bucquoy
(50.1391°N, 2.7097°E)
Time: 12:44:14
(UTC+00:00)

Cosmos 1937 Rocket - Pass Details

Date: 06 May 2021
Orbit: 745 x 781 km, 74.0° (Epoch: 22 June)

Event Time Altitude Azimuth Distance (km) Brightness Sun altitude
Exits shadow 00:18:33 46° 241° (WSW) 1,000 3.8 -22.9°
Maximum altitude 00:19:51 62° 297° (WNW) 841 3.7 -22.9°
Drops below altitude 10° 00:24:59 10° 19° (NNE) 2,285 7.1 -22.8°
Sets 00:27:24 0° 23° (NNE) 3,218 8.1 -22.7°
